Regional Weather Roundup
Issued by NWS Sioux Falls, SD

Home | Current Version | Previous Version | Text Only | Print | Product List | Glossary On
Versions: 1 2 3 4 5 6 7 8 9 10 11 12 13 14 15 16 17 18 19 20 21 22 23 24 25 26 27 28 29 30 31 32 33 34 35 36 37 38 39 40 41 42 43 44 45 46 47 48 49 50
000
ASUS43 KFSD 231110
RWRFSD

WEATHER ROUNDUP FOR SE SOUTH DAKOTA/SW MINNESOTA/NW IOWA
NATIONAL WEATHER SERVICE SIOUX FALLS SD
600 AM CDT THU OCT 23 2014

NOTE: "FAIR" INDICATES FEW OR NO CLOUDS BELOW 12,000 FEET WITH NO
SIGNIFICANT WEATHER AND OR OBSTRUCTIONS TO VISIBILITY.


SDZ038>040-050-052>070-231200-
SOUTHEAST SOUTH DAKOTA

CITY           SKY/WX    TMP DP  RH WIND       PRES   REMARKS
CHAMBERLAIN    CLEAR     35  33  95 CALM      30.00S
HURON          CLEAR     37  36  96 SE5       29.98S
MADISON        FAIR      43  43 100 SW8       30.00S
MITCHELL       CLEAR     47  43  86 SW7       30.00S
SIOUX FALLS    FOG       44  43  96 CALM      30.00F VSB 1/16
WINNER         FAIR      50  41  71 SW13      30.00S
YANKTON        MOCLDY    43  41  93 CALM      30.03S VSB<1/4
$$

MNZ071-072-080-081-089-090-097-098-231200-
SOUTHWEST MINNESOTA

CITY           SKY/WX    TMP DP  RH WIND       PRES   REMARKS
FAIRMONT       CLOUDY    54  48  82 SW5       30.00S
JACKSON        FOG       52  50  93 W7        30.01S VSB 3/4
LUVERNE        FOG       50  48  93 CALM      30.02S VSB 1/4
MARSHALL       CLEAR     48  45  87 SW9       29.96S
MONTEVIDEO     CLEAR     46  46 100 SW5       29.97S
PIPESTONE      FOG       48  48 100 CALM      30.00S VSB<1/4
REDWOOD FALLS  FOG       46  45  96 S7        29.98S VSB 1/2
TRACY          MOCLDY    49  49  97 SW10      29.99R FOG
WINDOM           N/A     52  50  93 SW3       30.01R FOG
WORTHINGTON    CLOUDY    52  50  93 W7        30.02S VSB 1/2
$$

IAZ001>003-012>014-020>022-031-032-NEZ013-014-SDZ071-231200-
NORTHWEST IOWA

CITY           SKY/WX    TMP DP  RH WIND       PRES   REMARKS
CHEROKEE       CLOUDY    54  54 100 NW3       30.01S FOG
DENISON        CLOUDY    59  59 100 CALM      30.00S FOG
ESTHERVILLE    CLOUDY    53  53 100 CALM      30.00S FOG
LE MARS        FOG       52  52 100 CALM      30.03S VSB<1/4
ORANGE CITY    FOG       52  50  93 CALM      30.02S VSB<1/4
SHELDON        FOG       48  48 100 CALM      30.01S VSB<1/4
SIOUX CITY     FOG       53  52  96 CALM      30.03R VSB 1/4
SPENCER        FOG       53  52  96 NW6       30.01S VSB 1/4
STORM LAKE     CLOUDY    57  57 100 NW7       30.02S
$$

ABBREVIATIONS USED IN REMARKS
   TC - TEMPERATURE IN CELSIUS
  WCI - WIND CHILL INDEX
   HX - HEAT INDEX
  VSB - VISIBILITY




USA.gov is the U.S. government's official web portal to all federal, state and local government web resources and services.